Probability
0 0 0 0 0 0 0 0 0 0 0 0 0 0 0 0 0 0 0 0 0 0 0 0 0 0 0 0 0 0 0 0 0 0 0 0 0 0 0 0 0 0 0 0
0 0 0 0 0 0 0 0 0 0 0 0 0 0 0 0 0 0 0 0 0 0 0 0 0 0 0 0 0 0 0 0 0 0 0 0 0 0 0 0 0 0 0 0
0 0 0 0 0 0 0 0 0 0 0 0 0 0 0 0 0 0 0 0 0 0 0 0 0 0 0 0 0 0 0 0 0 0 0 0 0 0 0 0 0 0 0 0
0 0 0 0 0 0 0 0 0 0 0 0 0 0 0 0 0 0 0 0 0 0 0 0 0 0 0 0 0 0 0 0 0 0 0 0 0 0 0 0 0 0 0 0
0 0 0 0 0 0 0 0 0 0 0 0 0 0 0 0 0 0 0 0 0 0 0 0 0 0 0 0 0 0 0 0 0 0 0 0 0 0 0 0 0 0 0 0
0 0 0 0 0 0 0 0 0 0 0 0 0 0 0 0 0 0 0 0 0 0 0 0 0 0 0 0 0 0 0 0 0 0 0 0 0 0 0 0 0 0 0 0
0 0 0 0 0 0 0 0 0 0 0 0 0 0 0 0 0 0 0 0 0 0 0 0 0 0 0 0 0 0 0 0 0 0 0 0 0 0 0 0 0 0 0 0
0 0 0 0 0 0 0 0 0 0 0 0 0 0 0 0 0 0 0 0 0 0 0 0 0 0 0 0 0 0 0 0 0 0 0 0 0 0 0 0 0 0 0 0
0 0 0 0 0 0 0 0 0 0 0 0 0 0 0 0 0 0 0 0 0 0 0 0 0 0 0 0 0 0 0 0 0 0 0 0 0 0 0 0 0 0 0 0
0 0 0 0 0 0 0 0 0 0 0 0 0 0 0 0 0 0 0 0 0 0 0 0 0 0 0 0 0 0 0 0 0 0 0 0 0 0 0 0 0 0 0 0
0 0 0 0 0 0 0 0 0 0 0 0 0 0 0 0 0 0 0 0 0 0 0 0 0 0 0 0 0 0 0 0 0 0 0 0 0 0 0 0 0 0 0 0
0 0 0 0 0 0 0 0 0 0 0 0 0 0 0 0 0 0 0 0 0 0 0 0 0 0 0 0 0 0 0 0 0 0 0 0 0 0 0 0 0 0 0 0
0 0 0 0 0 0 0 0 0 0 0 0 0 0 0 0 0 0 0 0 0 0 0 0 0 0 0 0 0 0 0 0 0 0 0 0 0 0 0 0 0 0 0 0
0 0 0 0 0 0 0 0 0 0 0 0 0 0 0 0 0 0 0 0 0 0 0 0 0 0 0 0 0 0 0 0 0 0 0 0 0 0 0 0 0 0 0 0
0 0 0 0 0 0 0 0 0 0 0 0 0 0 0 0 0 0 0 0 0 0 0 0 0 0 0 0 0 0 0 0 0 0 0 0 0 0 0 0 0 0 0 0
0 0 0 0 0 0 0 0 0 0 0 0 0 0 0 0 0 0 0 0 0 0 0 0 0 0 0 0 0 0 0 0 0 0 0 0 0 0 0 0 0 0 0 0
0 0 0 0 0 0 0 0 0 0 0 0 0 0 0 0 0 0 0 0 0 0 0 0 0 0 0 0 0 0 0 0 0 0 0 0 0 0 0 0 0 0 0 0
0 0 0 0 0 0 0 0 0 0 0 0 0 0 0 0 0 0 0 0 0 0 0 0 0 0 0 0 0 0 0 0 0 0 0 0 0 0 0 0 0 0 0 0
0 0 0 0 0 0 0 0 0 0 0 0 0 0 0 0 0 0 0 0 0 0 0 0 0 0 0 0 0 0 0 0 0 0 0 0 0 0 0 0 0 0 0 0
0 0 0 0 0 0 0 0 0 0 0 0 0 0 0 0 0 0 0 0 0 0 0 0 0 0 0 0 0 0 0 0 0 0 0 0 0 0 0 0 0 0 0 0
0 0 0 0 0 0 0 0 0 0 0 0 0 0 0 0 0 0 0 0 0 0 0 0 0 0 0 0 0 0 0 0 0 0 0 0 0 0 0 0 0 0 0 0
0 0 0 0 0 0 0 0 0 0 0 0 0 0 0 0 0 0 0 0 0 0 0 0 0 0 0 0 0 0 0 0 0 0 0 0 0 0 0 0 0 0 0 0
0 0 0 0 0 0 0 0 0 0 0 0 0 0 0 0 0 0 0 0 0 0 0 0 0 0 0 0 0 0 0 0 0 0 0 0 0 0 0 0 0 0 0 0
0 0 0 0 0 0 0 0 0 0 0 0 0 0 0 0 0 0 0 0 0 0 0 0 0 0 0 0 0 0 0 0 0 0 0 0 0 0 0 0 0 0 0 0
0 0 0 0 0 0 0 0 0 0 0 0 0 0 0 0 0 0 0 0 0 0 0 0 0 0 0 0 0 0 0 0 0 0 0 0 0 0 0 0 0 0 0 0
0 0 0 0 0 0 0 0 0 0 0 0 0 0 0 0 0 0 0 0 0 0 0 0 0 0 0 0 0 0 0 0 0 0 0 0 0 0 0 0 0 0 0 0
Height
5657 5658 5657 5656 5656 5655 5654 5654 5653 5651 5649 5649 5650 5650 5649 5647 5647 5649 5649 5651 5653 5654 5656 5659 5663 5665 5669 5674 5680 5685 5691 5696 5702 5707 5714 5720 5727 5733 5739 5745 5750 5756 5761 5766
5655 5655 5654 5653 5652 5652 5651 5650 5649 5648 5647 5646 5647 5647 5645 5644 5644 5645 5645 5647 5647 5648 5650 5652 5655 5658 5661 5666 5670 5675 5681 5686 5691 5697 5703 5709 5715 5722 5728 5734 5740 5745 5751 5756
5651 5652 5651 5650 5650 5649 5648 5648 5647 5646 5645 5644 5644 5645 5643 5642 5641 5641 5642 5642 5643 5644 5645 5646 5648 5651 5654 5658 5661 5666 5671 5677 5682 5687 5692 5697 5703 5710 5716 5723 5729 5735 5740 5746
5648 5649 5649 5648 5648 5647 5647 5646 5645 5644 5643 5643 5643 5642 5642 5641 5640 5639 5638 5638 5639 5639 5639 5640 5642 5645 5648 5651 5654 5658 5663 5668 5673 5678 5683 5688 5693 5700 5706 5713 5719 5724 5729 5735
5646 5647 5647 5647 5647 5646 5645 5644 5643 5643 5642 5642 5641 5640 5641 5639 5638 5637 5636 5635 5635 5634 5635 5636 5637 5639 5641 5644 5648 5652 5656 5661 5665 5670 5674 5679 5684 5691 5696 5702 5708 5713 5719 5724
5645 5645 5646 5646 5645 5645 5644 5644 5643 5642 5641 5642 5640 5639 5639 5637 5636 5634 5633 5632 5631 5631 5632 5632 5633 5635 5636 5638 5641 5645 5649 5654 5658 5662 5666 5670 5675 5681 5686 5691 5697 5703 5708 5713
5644 5644 5645 5645 5644 5644 5643 5643 5643 5642 5641 5641 5640 5638 5638 5635 5634 5632 5631 5630 5629 5629 5629 5629 5630 5630 5631 5633 5635 5639 5642 5646 5650 5654 5658 5661 5666 5670 5675 5681 5687 5693 5698 5702
5643 5644 5644 5643 5643 5643 5642 5643 5643 5642 5641 5640 5639 5638 5638 5635 5633 5631 5630 5629 5628 5627 5627 5626 5626 5627 5627 5628 5630 5633 5636 5639 5643 5646 5649 5653 5657 5661 5666 5671 5677 5683 5688 5692
5642 5643 5643 5643 5643 5643 5642 5642 5642 5642 5641 5640 5639 5638 5637 5634 5633 5631 5630 5628 5627 5626 5625 5624 5624 5624 5625 5626 5627 5628 5631 5634 5636 5639 5642 5646 5650 5654 5657 5662 5666 5672 5677 5681
5641 5642 5643 5643 5643 5643 5643 5642 5642 5642 5641 5640 5639 5638 5637 5634 5633 5631 5630 5628 5627 5626 5625 5623 5623 5622 5623 5623 5624 5625 5627 5629 5631 5633 5636 5639 5643 5646 5649 5652 5656 5661 5666 5670
5641 5642 5643 5643 5643 5643 5643 5643 5642 5641 5641 5640 5639 5640 5637 5635 5633 5631 5630 5629 5627 5625 5624 5623 5622 5621 5621 5621 5622 5623 5624 5625 5626 5627 5629 5632 5635 5638 5640 5643 5647 5651 5655 5659
5641 5642 5643 5643 5644 5643 5643 5643 5642 5642 5641 5640 5639 5642 5637 5635 5633 5631 5630 5629 5627 5626 5624 5623 5622 5621 5620 5620 5620 5620 5620 5620 5621 5622 5623 5625 5627 5629 5631 5634 5637 5640 5644 5648
5641 5643 5643 5644 5646 5645 5643 5643 5643 5642 5642 5641 5640 5642 5637 5636 5634 5632 5630 5630 5628 5627 5626 5624 5623 5621 5620 5619 5618 5618 5617 5617 5617 5617 5618 5619 5620 5622 5623 5625 5628 5630 5633 5636
5641 5642 5644 5644 5644 5644 5644 5644 5643 5643 5642 5641 5641 5640 5638 5636 5635 5633 5631 5630 5629 5627 5626 5624 5623 5621 5619 5617 5616 5615 5614 5613 5613 5613 5613 5613 5613 5614 5615 5617 5618 5621 5623 5626
5641 5642 5642 5643 5643 5643 5644 5644 5644 5643 5643 5642 5641 5640 5639 5637 5636 5634 5632 5631 5629 5627 5626 5624 5622 5620 5618 5616 5614 5613 5612 5611 5610 5609 5608 5608 5607 5607 5607 5608 5609 5611 5613 5616
5641 5642 5642 5642 5643 5643 5644 5644 5644 5643 5643 5642 5641 5640 5638 5637 5635 5634 5632 5631 5629 5627 5625 5623 5621 5619 5617 5615 5613 5611 5609 5608 5606 5605 5603 5602 5601 5600 5599 5599 5600 5602 5603 5605
5640 5641 5642 5643 5643 5643 5644 5644 5644 5643 5643 5642 5641 5640 5638 5637 5635 5634 5632 5631 5629 5627 5624 5622 5619 5617 5615 5613 5610 5608 5606 5604 5602 5600 5599 5597 5595 5594 5593 5592 5592 5592 5593 5595
5640 5641 5641 5642 5643 5643 5646 5643 5643 5643 5642 5641 5640 5639 5638 5636 5634 5633 5631 5630 5628 5626 5623 5620 5617 5615 5612 5610 5607 5604 5602 5600 5597 5595 5593 5591 5589 5588 5586 5585 5584 5583 5583 5584
5639 5640 5641 5641 5642 5642 5643 5642 5641 5641 5641 5640 5639 5638 5637 5635 5633 5632 5630 5628 5626 5624 5621 5618 5615 5612 5609 5606 5604 5601 5598 5595 5593 5590 5587 5585 5583 5581 5579 5577 5575 5574 5573 5573
5638 5639 5640 5640 5640 5641 5643 5641 5640 5641 5640 5639 5638 5636 5635 5634 5633 5631 5629 5627 5624 5622 5619 5616 5613 5610 5607 5604 5601 5598 5595 5592 5589 5585 5582 5579 5576 5574 5571 5569 5566 5564 5563 5562
5637 5638 5638 5638 5638 5639 5640 5639 5639 5639 5639 5636 5635 5634 5633 5631 5630 5629 5626 5624 5622 5619 5616 5614 5611 5607 5604 5601 5598 5595 5592 5589 5585 5581 5577 5573 5570 5567 5564 5561 5558 5556 5554 5553
5635 5636 5636 5636 5636 5639 5637 5636 5636 5636 5634 5633 5632 5631 5630 5628 5626 5625 5623 5621 5619 5616 5613 5610 5608 5604 5601 5598 5595 5592 5588 5584 5580 5576 5571 5567 5564 5560 5557 5554 5550 5548 5545 5543
5633 5634 5633 5634 5636 5634 5633 5633 5632 5632 5631 5630 5629 5628 5626 5625 5623 5621 5619 5617 5615 5612 5609 5607 5604 5601 5597 5594 5590 5587 5583 5579 5574 5570 5566 5561 5558 5554 5551 5547 5544 5541 5538 5535
5629 5629 5629 5630 5631 5630 5629 5629 5628 5628 5627 5626 5625 5624 5622 5620 5618 5616 5614 5612 5610 5607 5605 5602 5599 5596 5592 5589 5585 5581 5577 5573 5568 5564 5559 5555 5552 5548 5544 5540 5537 5533 5530 5527
5625 5624 5624 5625 5626 5625 5625 5624 5624 5623 5622 5621 5620 5618 5617 5615 5613 5611 5609 5607 5605 5602 5599 5597 5594 5590 5587 5583 5579 5575 5570 5566 5561 5557 5553 5548 5544 5540 5536 5532 5528 5525 5521 5518
5620 5619 5619 5620 5619 5619 5619 5618 5618 5617 5616 5615 5614 5612 5611 5609 5607 5604 5602 5600 5598 5596 5593 5590 5587 5584 5580 5576 5572 5568 5563 5559 5554 5550 5545 5541 5536 5532 5528 5524 5520 5515 5512 5509
Wind_Speed
14 14 14 14 15 16 16 16 16 16 17 18 18 19 19 19 21 22 23 25 27 28 30 32 35 36 41 44 46 48 50 50 50 52 54 54 55 54 55 55 53 52 52 51
13 13 12 12 12 12 12 12 12 12 13 13 13 14 15 17 18 19 20 23 25 26 26 28 32 34 36 40 43 45 48 48 48 48 50 52 54 55 55 56 54 53 53 52
12 11 11 11 10 9 8 9 9 9 10 10 10 10 11 13 14 16 17 17 20 23 26 26 28 30 33 37 39 41 43 44 45 46 48 50 51 53 55 56 55 55 54 55
10 9 9 8 7 7 6 7 7 7 8 7 8 8 8 10 11 13 14 15 16 19 22 24 25 27 30 33 36 39 40 40 40 42 45 46 48 48 51 53 54 54 54 55
8 7 7 6 6 6 5 5 5 5 5 6 6 7 6 8 10 11 12 13 13 14 17 18 20 23 26 29 32 34 36 38 38 39 43 45 46 48 50 51 53 54 54 55
7 6 6 5 5 5 4 4 4 4 4 4 5 6 6 6 8 8 9 10 11 12 13 14 15 18 21 26 30 31 31 33 35 37 39 43 45 45 47 49 49 51 52 53
7 6 5 4 3 4 3 3 4 3 3 4 5 6 7 7 6 6 7 8 9 9 9 11 13 15 17 20 24 26 27 29 32 34 35 39 43 43 43 45 47 48 49 50
6 5 4 3 2 2 2 2 3 2 2 4 4 6 7 7 6 6 7 7 6 6 6 7 9 10 13 16 19 21 22 26 29 31 33 35 38 41 41 44 46 47 48 48
6 4 3 2 1 1 1 1 1 1 2 3 5 5 6 5 5 6 7 7 5 5 4 4 6 7 9 12 15 17 19 22 26 29 31 32 34 37 40 42 45 47 48 48
5 4 3 2 1 1 1 1 1 1 3 4 5 5 6 5 4 5 5 5 4 4 3 3 3 4 6 9 11 14 17 20 22 25 28 31 32 33 35 39 41 44 46 47
4 3 3 2 2 1 1 1 2 2 3 4 4 5 5 6 6 5 4 4 4 3 3 3 3 3 5 6 8 10 13 17 18 21 24 28 31 33 34 36 39 41 44 45
4 4 3 3 2 2 1 2 3 3 2 3 4 4 4 6 6 5 5 4 4 4 4 4 3 3 2 3 5 7 10 13 16 18 20 24 28 31 33 35 38 41 44 46
5 4 3 3 2 2 0 2 3 2 3 3 3 4 4 5 5 5 5 5 5 5 5 4 4 5 4 4 5 6 8 9 12 15 18 21 24 28 31 32 34 38 41 43
4 4 4 3 3 2 1 1 2 2 3 3 3 4 4 5 5 5 5 5 7 7 6 5 6 6 6 6 6 7 8 9 10 13 16 18 20 25 28 30 32 35 37 39
4 4 4 4 4 3 2 2 2 2 3 3 4 5 4 4 5 5 5 6 7 8 7 6 6 7 8 8 8 8 9 9 10 12 13 15 17 20 23 27 30 32 35 37
4 3 3 4 5 5 4 3 3 3 3 4 5 5 5 5 5 5 6 6 7 8 9 9 9 8 8 8 9 10 11 11 12 13 14 15 17 19 21 25 29 31 34 36
4 4 4 4 4 5 5 5 5 5 5 5 5 5 5 6 6 6 6 7 8 8 9 10 11 10 10 11 11 11 11 13 14 15 16 18 19 20 22 24 27 30 33 35
5 5 4 4 5 5 5 5 5 5 5 5 5 5 6 7 7 7 7 8 9 10 10 11 12 12 13 13 13 14 15 16 17 17 18 19 20 21 22 24 27 30 32 34
7 7 6 6 5 5 6 6 6 7 7 6 6 6 7 7 7 7 8 9 11 11 12 13 13 14 14 15 16 18 18 19 20 20 20 21 22 23 24 25 27 29 32 33
8 8 8 7 7 6 6 7 7 7 7 7 7 7 7 7 8 9 10 11 12 13 14 15 16 16 16 17 19 20 21 21 22 22 23 23 24 24 25 26 27 28 30 31
9 9 8 8 8 8 8 8 8 9 8 8 9 9 9 9 10 10 11 12 13 14 15 16 17 18 19 19 20 21 22 23 23 24 25 26 25 25 26 27 27 28 30 31
11 11 10 10 9 9 9 10 10 10 10 10 10 11 11 12 12 13 13 14 15 16 17 18 19 20 21 21 22 22 24 25 26 27 27 26 26 27 27 28 28 28 30 31
12 12 12 12 11 12 12 12 12 12 12 13 13 13 14 15 15 15 16 17 17 18 19 20 21 22 23 24 24 24 26 27 28 28 29 28 28 28 29 29 30 31 31 32
15 15 15 15 14 15 15 15 15 15 15 16 17 17 18 18 19 19 19 19 20 20 21 21 22 23 24 25 26 27 28 29 30 31 30 29 30 30 30 31 32 33 33 33
17 18 18 18 18 19 18 18 18 18 19 20 20 21 22 22 22 22 22 22 22 22 22 23 24 25 26 27 28 30 31 32 33 32 32 33 33 33 33 33 33 33 33 33
20 21 21 20 21 22 21 21 22 22 22 23 23 24 24 24 24 24 24 25 25 25 25 26 27 28 28 29 30 31 33 34 34 34 34 35 35 36 35 35 35 34 34 34
Wind_Direction
267 272 277 280 282 280 278 276 276 272 267 266 266 269 268 267 263 258 255 249 245 244 240 241 241 240 237 235 236 234 233 233 233 233 234 235 235 234 233 233 232 232 232 234
263 269 275 281 287 285 281 278 276 270 269 270 272 273 272 273 270 268 260 252 251 248 249 246 245 241 238 236 235 234 235 234 233 233 234 234 235 234 233 233 233 233 233 234
262 269 275 281 283 286 282 279 278 271 268 275 276 271 269 272 272 270 265 261 260 256 253 253 252 245 241 238 237 235 234 232 232 234 234 234 234 234 233 233 234 235 235 234
259 264 271 275 278 284 288 286 279 271 270 276 278 277 270 272 276 275 272 268 270 263 256 255 254 250 246 240 237 234 236 235 234 234 233 235 235 233 232 232 233 234 235 235
252 257 262 267 281 289 294 292 286 281 277 280 286 289 281 275 279 278 277 276 270 269 266 259 257 254 248 242 238 237 237 237 238 236 233 234 234 235 234 234 234 235 236 236
239 247 252 263 280 293 290 287 297 282 279 284 291 298 303 295 295 290 286 285 277 271 264 262 262 258 252 247 243 241 239 239 239 237 236 238 235 237 237 235 234 235 236 238
229 241 251 260 278 300 290 286 292 288 293 311 304 307 316 312 314 313 302 296 281 273 266 261 262 258 253 248 244 245 242 240 239 239 241 240 237 238 238 236 234 235 237 239
218 235 243 251 279 308 314 304 299 299 318 325 318 323 325 318 313 320 314 307 278 270 269 260 261 262 255 250 248 247 245 244 243 243 242 240 241 241 239 237 235 235 236 239
207 219 234 243 258 287 318 324 322 300 317 329 334 345 350 329 318 317 309 308 296 271 276 276 264 261 256 251 251 251 250 248 246 246 245 241 242 243 242 239 237 236 237 239
205 217 219 219 225 211 352 355 345 300 304 326 336 341 353 357 344 332 325 310 303 296 302 304 302 280 276 267 255 256 257 255 253 249 246 244 246 244 242 240 239 239 239 241
195 200 194 191 176 149 96 23 6 336 311 319 334 339 348 355 352 349 343 344 339 330 320 320 328 305 297 281 269 265 259 255 252 250 249 248 248 244 245 245 242 241 241 242
196 192 184 177 166 146 93 33 19 6 2 356 357 357 359 1 1 2 8 19 30 30 2 352 354 350 320 299 287 279 276 268 257 254 255 254 250 248 248 248 245 242 242 243
202 200 194 195 197 192 136 9 17 30 24 11 10 16 12 11 9 4 11 25 23 12 6 7 6 355 344 329 311 300 292 282 272 267 264 262 258 256 253 251 247 246 244 244
214 217 215 213 217 221 250 331 3 12 5 7 12 11 6 11 16 19 25 21 11 2 359 355 354 354 345 336 326 315 304 292 282 280 275 271 268 262 257 255 252 249 247 246
222 221 220 223 226 232 245 276 302 327 349 357 5 3 2 7 13 18 21 18 11 5 2 358 348 345 342 337 331 320 309 303 295 291 286 278 279 272 264 258 255 254 252 250
222 223 227 232 231 231 239 258 274 292 313 330 338 344 347 352 2 3 4 5 3 2 0 1 356 347 340 333 322 317 312 305 299 295 294 290 287 281 272 264 260 259 255 251
231 235 233 231 238 236 238 255 272 279 292 307 317 331 338 344 348 351 354 358 358 353 350 347 346 342 340 336 326 318 315 311 305 300 297 292 289 285 278 270 265 261 258 255
237 241 247 248 251 252 251 258 270 277 288 299 303 314 329 342 346 342 349 351 348 347 347 345 340 339 337 336 332 324 318 314 312 309 303 296 292 287 282 276 272 267 262 260
245 248 252 256 260 260 261 269 274 275 282 292 297 309 324 338 343 340 340 340 341 342 340 342 341 339 337 336 335 329 321 317 313 311 308 302 298 293 288 284 278 272 268 264
244 247 252 258 262 264 266 269 275 279 280 283 288 296 308 322 326 324 327 330 332 334 337 337 337 336 334 333 330 330 328 324 319 313 309 304 299 297 295 291 285 278 273 268
244 246 251 257 264 266 269 275 281 283 286 287 288 291 299 309 313 313 318 321 322 324 327 327 327 328 328 328 327 328 326 325 321 315 311 309 304 301 301 297 292 285 279 275
247 249 252 257 265 269 272 277 280 281 283 288 291 292 295 299 301 302 306 310 312 315 317 319 321 321 322 322 321 320 321 321 321 318 315 311 307 304 303 302 299 295 290 283
250 252 255 259 265 269 272 275 277 278 281 286 289 292 294 296 298 298 301 303 306 308 312 313 315 316 317 318 318 317 319 320 320 318 315 311 307 306 304 302 300 298 296 292
253 256 259 261 265 266 269 271 274 277 280 284 287 290 292 294 296 295 295 299 302 305 308 310 312 314 315 316 317 317 317 318 317 315 313 311 309 308 306 303 301 299 296 295
256 258 261 264 265 266 269 271 274 276 280 283 285 288 290 292 294 294 292 294 298 299 302 305 308 311 314 316 317 317 316 316 315 313 312 310 309 308 307 305 303 300 298 295
259 260 261 262 264 267 270 272 274 276 279 282 284 286 288 290 291 292 291 292 294 296 298 301 305 307 309 311 313 315 314 314 314 313 312 310 310 309 307 305 304 301 299 297